GW2492 Weather Reports


Display with metric or nautical units.
time (UTC)temp
F
wind
direction
speed
MPH
gust
MPH
rain 1hr
in
rain 24hr
in
rain mn
in
humidity
%
barometer
mb
20260906223100 94 178 8.0 17.0 0.00 0.00 0.00 46 1013.1
20260906221604 94 150 6.0 16.0 0.00 0.00 0.00 45 1013.3
20260906220057 94 207 3.0 12.0 0.00 0.00 0.00 45 1013.3
20260906214555 93 126 7.0 13.0 0.00 0.00 0.00 45 1013.3
20260906213050 93 124 4.0 13.0 0.00 0.00 0.00 47 1013.5
20260906211553 92 147 8.0 15.0 0.00 0.00 0.00 47 1013.7
20260906210052 91 155 6.0 12.0 0.00 0.00 0.00 47 1014.0
20260906204547 91 97 9.0 15.0 0.00 0.00 0.00 48 1014.3
20260906203056 91 112 10.0 15.0 0.00 0.00 0.00 49 1014.3
20260906201609 91 109 14.0 20.0 0.00 0.00 0.00 50 1014.8
20260906200049 91 122 11.0 18.0 0.00 0.00 0.00 50 1014.9
20260906194554 91 95 8.0 17.0 0.00 0.00 0.00 52 1014.9
20260906193057 91 105 8.0 13.0 0.00 0.00 0.00 51 1015.0
20260906191557 92 41 6.0 15.0 0.00 0.00 0.00 50 1015.0
20260906190053 91 79 6.0 12.0 0.00 0.00 0.00 50 1015.3
20260906184557 90 93 5.0 12.0 0.00 0.00 0.00 53 1015.4
20260906183115 90 56 7.0 15.0 0.00 0.00 0.00 54 1015.8
20260906181600 91 106 5.0 12.0 0.00 0.00 0.00 53 1015.8
20260906180113 90 53 1.0 6.0 0.00 0.00 0.00 55 1016.1
20260906174546 88 211 5.0 9.0 0.00 0.00 0.00 58 1016.3
20260906173056 88 202 1.0 5.0 0.00 0.00 0.00 59 1016.6
20260906171555 88 80 5.0 13.0 0.00 0.00 0.00 56 1016.8
20260906170046 88 101 6.0 13.0 0.00 0.00 0.00 55 1016.8
20260906164554 89 154 3.0 8.0 0.00 0.00 0.00 58 1017.0
20260906163101 89 360 0.0 5.0 0.00 0.00 0.00 61 1016.9
20260906161601 87 0 1.0 4.0 0.00 0.00 0.00 63 1017.0
20260906160052 87 0 2.0 5.0 0.00 0.00 0.00 64 1017.1
20260906154547 85 15 3.0 6.0 0.00 0.00 0.00 66 1017.0
20260906153047 84 9 2.0 5.0 0.00 0.00 0.00 68 1016.8
20260906151551 84 0 1.0 4.0 0.00 0.00 0.00 70 1016.7
20260906150054 83 0 1.0 3.0 0.00 0.00 0.00 70 1016.4
20260906144554 82 344 1.0 4.0 0.00 0.00 0.00 72 1016.3
20260906143045 81 0 0.0 2.0 0.00 0.00 0.00 73 1016.4
20260906141556 80 0 0.0 2.0 0.00 0.00 0.00 75 1016.2
20260906140055 78 0 0.0 2.0 0.00 0.00 0.00 77 1016.2
20260906134556 78 0 0.0 0.0 0.00 0.00 0.00 77 1016.0
20260906133107 77 0 0.0 0.0 0.00 0.00 0.00 78 1016.0
20260906131555 75 0 0.0 0.0 0.00 0.00 0.00 81 1015.8
20260906130105 74 0 0.0 2.0 0.00 0.00 0.00 83 1015.6
20260906124550 72 9 1.0 2.0 0.00 0.00 0.00 85 1015.4
20260906123048 72 9 1.0 2.0 0.00 0.00 0.00 85 1015.3
20260906121608 72 9 1.0 3.0 0.00 0.00 0.00 84 1015.2
20260906120057 73 9 3.0 4.0 0.00 0.00 0.00 83 1015.0
20260906114557 73 10 1.0 4.0 0.00 0.00 0.00 82 1014.9
20260906113054 73 344 0.0 2.0 0.00 0.00 0.00 81 1014.7
20260906111555 74 344 0.0 3.0 0.00 0.00 0.00 80 1014.6
20260906110057 75 0 0.0 3.0 0.00 0.00 0.00 78 1014.5
20260906104551 75 229 1.0 4.0 0.00 0.00 0.00 78 1014.4
20260906103048 75 275 2.0 4.0 0.00 0.00 0.00 78 1014.3
20260906101547 76 248 4.0 8.0 0.00 0.00 0.00 77 1014.3
20260906100055 76 213 5.0 7.0 0.00 0.00 0.00 76 1014.2
20260906094551 77 191 6.0 9.0 0.00 0.00 0.00 75 1014.2
20260906093047 78 194 7.0 10.0 0.00 0.00 0.00 74 1014.1
20260906091553 78 193 7.0 10.0 0.00 0.00 0.00 74 1013.9
20260906090106 76 178 5.0 9.0 0.00 0.00 0.00 76 1013.9
20260906084549 76 167 4.0 7.0 0.00 0.00 0.00 77 1014.0
20260906083056 75 159 2.0 4.0 0.00 0.00 0.00 77 1014.1
20260906081611 76 159 0.0 4.0 0.00 0.00 0.00 77 1014.0
20260906080057 76 0 0.0 0.0 0.00 0.00 0.00 76 1014.1
20260906074610 77 0 0.0 0.0 0.00 0.00 0.00 76 1013.9
20260906073049 77 0 0.0 0.0 0.00 0.00 0.00 75 1014.1
20260906071600 77 0 0.0 0.0 0.00 0.00 0.00 75 1014.3
20260906070058 77 0 0.0 0.0 0.00 0.00 0.00 74 1014.4
20260906064554 78 0 0.0 0.0 0.00 0.00 0.00 73 1014.5
20260906063050 78 0 0.0 0.0 0.00 0.00 0.00 72 1014.6
20260906061609 79 0 0.0 1.0 0.00 0.00 0.00 71 1014.7
20260906060058 79 159 1.0 4.0 0.00 0.00 0.00 70 1014.8
20260906054558 80 159 2.0 5.0 0.00 0.00 0.00 69 1014.9
20260906053049 80 159 2.0 5.0 0.00 0.00 0.00 68 1015.0
20260906051601 80 159 1.0 4.0 0.00 0.00 0.00 67 1015.0
20260906050055 80 159 2.0 5.0 0.00 0.00 0.00 67 1015.2
20260906044552 81 160 4.0 7.0 0.00 0.00 0.00 66 1015.1
20260906043048 82 149 4.0 7.0 0.00 0.00 0.00 63 1015.1
20260906041547 83 150 4.0 8.0 0.00 0.00 0.00 63 1015.0
20260906040058 83 148 4.0 8.0 0.00 0.00 0.00 62 1015.0
20260906034550 84 153 5.0 10.0 0.00 0.00 0.00 62 1014.9
20260906033051 84 152 7.0 10.0 0.00 0.00 0.00 61 1014.8
20260906031602 85 140 6.0 10.0 0.00 0.00 0.00 60 1014.5
20260906030056 85 150 5.0 9.0 0.00 0.00 0.00 59 1014.1
20260906024550 86 157 6.0 9.0 0.00 0.00 0.00 59 1013.7
20260906023047 87 153 6.0 11.0 0.00 0.00 0.00 58 1013.5
20260906021556 88 144 10.0 14.0 0.00 0.00 0.00 56 1013.2
20260906014547 89 134 5.0 9.0 0.00 0.00 0.00 50 1012.8
20260906013100 90 138 5.0 9.0 0.00 0.00 0.00 49 1012.7
20260906011558 91 115 4.0 10.0 0.00 0.00 0.00 49 1012.5
20260906010055 92 105 5.0 12.0 0.00 0.00 0.00 48 1012.3
20260906004556 93 100 5.0 15.0 0.00 0.00 0.00 47 1012.2
20260906003056 94 92 8.0 15.0 0.00 0.00 0.00 46 1012.3
20260906001555 94 87 10.0 16.0 0.00 0.00 0.00 45 1012.4
20260906000051 95 76 5.0 14.0 0.00 0.00 0.00 46 1012.3
20260905234549 95 55 6.0 11.0 0.00 0.00 0.00 46 1012.0
20260905233057 95 46 6.0 12.0 0.00 0.00 0.00 46 1012.0
20260905231551 95 84 5.0 17.0 0.00 0.00 0.00 45 1011.7
20260905230054 95 90 7.0 12.0 0.00 0.00 0.00 44 1011.7
20260905224606 95 82 5.0 11.0 0.00 0.00 0.00 45 1011.9